Location: La Comballaz
(46.3780°N, 7.0817°E)
Time: 01:24:52
(UTC+00:00)

STARLINK-1232 - Pass Details

Date: 09 April 2020
Orbit: 548 x 551 km, 53.0° (Epoch: 30 May)

Event Time Altitude Azimuth Distance (km) Brightness Sun altitude
Rises 19:45:39 0° 297° (WNW) 2,703 9.0 -15.8°
Reaches altitude 10° 19:47:57 10° 291° (WNW) 1,808 7.6 -16.2°
Maximum altitude 19:51:50 42° 220° (SW) 781 4.4 -16.8°
Enters shadow 19:53:36 26° 167° (SSE) 1,081 4.7 -17.0°
